{"data":{"norad_id":53569,"epoch":"2026-05-25T04:32:36.099744Z","epoch_age_seconds":65483,"freshness":"FRESH","line1":"1 53569U 22101AU  26145.18930671 -.00000286  00000+0  13653-6 0  9997","line2":"2 53569  53.2133  70.7237 0001012 125.6381 234.4705 15.08846044208660","mean_motion":15.08846044,"eccentricity":0.0001012,"inclination_deg":53.2133,"raan_deg":70.7237,"arg_perigee_deg":125.6381,"mean_anomaly_deg":234.4705,"bstar":1.3653e-7,"rev_number":20866,"period_min":95.437172382579,"perigee_km":539.02482730992,"apogee_km":540.4250025615,"semimajor_km":6917.8619149357,"source":"CELESTRAK","updated_at":"2026-05-25T13:38:17.470457Z"}}